Wind_Speed
58 59 59 59 58 58 58 58 59 60 61 62 62 61 61 61 60 61 61 61 62 63 65 66 66 66 65 64 63 62 61 59 57 55 58 60 57 57 60 62 62 61 62 64 65 67 69 71 71 72 72 72 72 72 71 69 67 65 63 63 64 65 65 64 62 60 58 56 55 54 53 52 49 45 45 47 45 43 41 41 39 39 43 44 42 40 40 40
57 59 60 60 60 60 59 59 59 60 61 62 63 63 63 62 61 61 61 60 60 60 61 62 64 65 66 66 64 64 62 61 58 57 61 59 53 56 59 60 61 60 61 62 63 64 65 67 68 70 71 72 72 71 71 69 67 66 65 65 67 68 67 64 62 60 58 57 56 55 54 52 49 45 46 48 46 44 43 42 41 41 44 44 41 40 40 40
57 58 59 61 61 61 61 60 60 60 60 61 63 64 64 64 63 62 62 61 60 60 59 60 61 62 64 65 65 65 64 62 59 61 64 57 54 57 58 58 59 60 61 62 62 62 63 64 65 67 68 69 70 70 70 69 67 67 66 68 71 70 67 65 63 61 58 57 55 54 53 51 49 45 45 49 47 45 44 43 43 43 44 43 40 40 40 40
58 58 59 60 61 62 62 62 61 61 61 61 62 63 65 66 66 65 64 63 61 60 59 59 59 60 61 62 64 65 65 63 62 65 64 57 57 58 56 56 57 59 60 61 62 62 62 62 63 63 64 66 67 68 68 68 68 67 68 71 73 70 67 66 64 62 59 57 55 54 53 51 49 46 46 49 48 46 46 45 44 43 43 43 41 40 40 39
57 59 60 60 60 62 62 62 62 62 62 61 62 63 64 66 67 68 67 66 64 62 61 59 59 59 59 59 61 63 65 65 64 66 63 59 59 57 56 55 55 57 59 60 62 62 62 62 62 61 62 62 63 64 66 67 67 67 70 73 73 69 67 66 64 62 60 58 56 55 54 52 50 48 48 50 49 49 49 46 44 44 44 43 41 40 40 39
56 59 60 61 61 61 62 63 63 63 62 62 62 63 64 65 66 68 69 69 67 66 63 61 60 59 58 58 58 60 62 64 65 66 64 61 60 58 57 55 55 56 57 59 61 61 61 61 61 61 61 60 60 61 62 64 64 65 69 72 71 69 68 66 64 63 61 60 59 57 56 54 52 52 52 53 52 51 50 47 46 46 44 44 42 41 40 39
57 58 60 62 62 62 62 62 63 63 63 63 63 63 64 65 66 67 68 70 70 69 67 64 61 59 59 58 57 57 59 61 64 66 66 63 61 60 58 56 55 55 55 58 60 60 60 60 60 61 60 59 60 59 59 60 60 63 66 68 67 67 66 66 64 63 62 61 61 59 58 57 56 56 55 55 54 52 50 49 48 47 45 44 43 42 41 41
59 58 59 61 63 64 63 62 63 63 63 63 63 63 63 64 66 67 67 67 69 71 70 67 64 61 60 58 57 55 56 59 63 66 67 66 63 61 59 57 56 55 55 56 58 59 58 58 60 60 59 60 59 58 57 57 58 60 62 63 64 64 64 64 64 64 63 62 62 61 61 60 58 57 57 56 54 52 50 50 49 47 46 45 44 42 41 42
61 60 59 60 62 64 65 64 63 63 63 64 64 64 64 64 65 66 67 66 67 68 70 70 67 64 61 59 57 55 57 61 62 64 66 66 64 62 60 57 56 55 55 55 56 56 56 58 59 59 59 59 58 56 55 55 57 59 59 58 59 59 60 62 62 63 63 63 64 64 64 63 60 59 59 57 55 53 51 51 50 48 47 46 44 43 42 43
63 63 62 61 62 64 66 66 65 64 64 64 65 65 65 64 64 65 66 66 66 66 68 69 69 67 63 61 57 56 61 62 58 60 63 64 63 61 59 57 56 55 54 54 54 55 56 58 59 58 57 56 56 55 55 55 57 58 56 55 55 55 56 57 58 59 60 62 65 67 67 66 63 61 61 59 56 55 53 52 52 51 49 48 46 45 45 46
66 65 64 64 63 63 66 68 67 66 65 65 65 65 66 65 65 64 64 65 66 65 65 66 68 68 66 62 59 61 65 61 56 57 59 62 62 61 59 57 56 55 55 54 54 55 57 57 57 56 55 54 55 54 54 55 56 56 55 53 53 53 53 53 54 55 56 60 64 68 68 67 65 62 62 61 58 57 56 55 54 52 51 49 48 48 48 48
68 68 67 66 66 65 66 68 69 69 67 66 65 66 66 66 65 64 64 64 65 65 64 64 65 67 67 63 63 68 68 61 57 56 57 59 61 61 61 59 58 57 56 54 54 56 57 56 55 54 54 54 54 52 53 54 54 55 54 52 52 52 52 52 52 52 53 57 63 65 65 65 64 62 62 62 60 60 59 57 55 53 51 51 51 51 50 49
70 70 70 69 68 68 67 69 71 71 70 69 67 66 66 66 66 65 64 64 65 65 64 63 63 64 65 63 68 72 68 63 59 56 56 57 59 61 61 61 60 59 58 56 56 56 56 55 53 53 53 53 52 51 52 52 52 53 51 49 50 50 51 51 51 50 51 55 60 60 60 61 62 62 62 62 62 62 60 58 56 54 53 53 53 52 51 50
72 73 73 72 71 70 69 69 71 73 72 71 69 67 66 66 67 66 65 64 64 65 65 63 61 62 62 64 72 73 68 65 60 57 56 56 58 61 61 62 62 61 60 59 58 57 56 54 53 53 52 51 51 50 50 50 49 49 48 48 49 49 50 51 51 50 50 54 57 56 56 58 58 58 59 61 62 63 61 59 58 57 56 54 54 54 53 51
74 75 75 75 74 73 72 71 72 74 74 73 71 69 67 67 67 66 65 64 64 64 65 64 61 59 60 67 74 72 68 65 61 59 58 57 59 62 63 64 64 63 62 61 60 58 57 54 52 51 50 51 51 49 48 47 46 47 47 48 48 48 49 50 50 49 50 53 53 53 54 55 55 54 55 58 60 61 61 61 60 60 58 56 56 55 53 53
75 76 76 76 77 77 75 74 73 74 75 75 74 71 69 68 67 66 66 65 64 64 65 63 61 58 60 68 73 70 68 66 64 63 60 59 62 65 67 66 66 65 63 62 60 59 58 55 52 51 51 51 49 47 47 45 44 45 45 46 47 47 48 48 48 48 50 51 51 52 53 54 54 52 53 54 55 57 58 60 61 62 60 59 58 56 55 55
75 75 77 77 78 79 78 76 75 75 76 76 75 73 70 69 68 67 66 66 64 64 64 63 62 60 61 68 70 69 70 69 68 66 62 63 66 67 67 66 66 65 64 63 61 59 58 54 52 51 50 48 47 46 45 42 42 44 44 44 44 45 47 46 46 47 48 49 50 52 52 54 54 52 50 50 51 52 53 56 60 62 62 60 60 58 57 56
74 74 75 77 78 79 80 79 77 77 76 77 77 74 72 70 69 67 66 66 65 64 62 62 63 62 64 67 68 68 69 68 68 66 64 66 68 67 66 65 66 66 65 64 61 59 56 53 52 51 49 46 45 43 40 40 42 44 44 44 45 45 46 45 44 45 46 47 49 51 52 54 54 51 49 47 47 48 49 52 57 59 59 59 59 59 58 58
74 74 74 76 77 78 80 81 79 78 77 77 77 76 74 72 70 68 66 66 64 63 62 61 63 64 66 67 66 64 63 63 64 63 64 66 67 67 65 65 65 66 65 63 61 59 56 54 52 48 45 44 43 42 41 43 45 46 46 46 45 44 44 44 43 44 45 45 48 49 51 54 53 51 48 46 45 45 47 50 52 53 55 56 57 59 59 60
72 73 74 75 75 76 79 81 81 80 79 78 78 77 76 74 72 68 66 65 64 64 62 60 62 65 67 67 65 61 59 59 61 61 63 66 66 65 64 63 63 64 64 63 61 59 57 54 50 46 44 45 45 45 46 47 48 48 48 46 44 43 44 44 42 44 45 46 48 49 52 53 51 49 46 44 43 43 45 47 48 49 51 53 55 57 59 60
70 72 73 73 73 74 77 80 81 81 80 79 79 78 78 77 73 69 65 64 65 64 61 59 61 65 67 68 66 62 60 58 58 60 63 65 65 64 63 61 61 62 63 63 62 61 58 52 47 46 48 49 49 48 48 49 50 50 48 46 44 44 46 46 44 45 45 47 51 52 52 51 48 46 43 42 41 41 43 46 47 47 47 49 51 53 56 59
67 70 71 72 72 73 74 77 80 81 81 80 80 80 80 78 73 68 64 63 64 62 61 59 61 66 68 68 67 65 62 59 58 60 62 64 63 61 61 60 60 61 63 64 63 60 56 50 48 49 51 52 51 49 49 51 52 51 48 45 44 46 48 47 45 46 46 49 52 53 52 48 45 43 41 40 39 39 42 44 45 45 46 47 49 50 52 57
62 65 68 71 71 72 72 74 77 81 82 81 82 82 81 77 72 68 65 63 63 63 62 60 61 66 68 69 68 65 63 62 61 61 62 62 61 61 61 59 59 62 64 63 61 59 54 50 51 53 53 53 51 50 51 53 52 49 46 45 46 49 50 49 49 48 49 52 54 54 51 47 44 42 40 38 37 38 40 42 42 43 45 46 48 48 51 55
58 61 65 68 70 71 70 71 75 79 81 82 83 82 80 76 72 69 65 62 62 63 63 62 63 66 68 68 69 66 64 64 63 62 61 60 60 61 60 60 60 61 62 62 62 60 56 55 57 57 55 54 53 54 55 53 50 48 46 47 50 53 53 53 53 51 52 55 56 54 50 46 43 41 38 36 37 38 40 40 40 42 44 46 47 48 51 53
53 56 60 64 68 70 69 69 73 77 80 82 82 82 80 76 73 69 65 62 62 63 63 63 63 67 69 66 66 66 65 63 61 61 60 59 59 60 61 61 61 60 60 62 63 61 59 60 61 58 57 57 57 57 55 52 51 50 50 51 55 57 57 57 55 53 54 55 55 54 51 47 44 42 39 37 38 40 39 39 40 42 44 45 46 48 51 53
48 51 55 59 64 68 67 68 71 75 78 80 81 81 79 77 73 68 65 62 61 63 64 64 66 69 67 61 64 68 65 62 61 61 60 60 60 61 62 62 60 60 61 63 64 63 61 62 62 59 59 60 59 57 54 53 53 52 52 55 59 61 60 59 56 54 54 55 56 55 53 49 46 44 41 40 42 42 40 39 41 42 44 45 46 48 50 51
42 46 50 54 60 65 65 66 70 73 76 78 79 80 79 77 73 69 66 62 63 66 65 65 69 69 64 62 66 67 64 63 63 62 62 62 62 61 61 60 61 61 63 64 63 61 61 62 62 61 61 61 59 55 53 54 54 54 56 59 61 62 63 61 57 55 56 58 59 58 54 51 48 45 43 43 44 45 43 41 42 44 45 45 46 47 48 49
36 42 46 49 55 61 62 64 68 71 75 77 77 78 78 76 73 70 67 64 66 68 65 66 70 69 64 64 65 65 67 68 66 65 64 64 63 63 61 60 61 62 63 63 60 59 61 61 61 62 62 60 57 56 57 56 55 57 60 62 62 64 65 63 59 58 59 61 61 58 54 51 49 46 45 45 46 46 46 44 45 46 47 47 47 48 48 48
32 37 42 45 50 55 59 62 66 70 74 75 75 77 77 76 73 71 68 66 68 68 66 67 68 66 64 62 61 64 68 68 67 67 66 65 64 64 62 62 62 63 63 62 60 61 62 60 61 63 61 60 59 60 61 58 58 62 64 63 64 66 66 64 60 60 61 61 60 57 53 51 50 47 46 46 46 48 49 49 49 50 50 50 49 49 49 49
29 32 38 41 44 49 55 60 64 70 74 75 76 76 77 76 74 71 69 67 68 67 66 67 66 66 64 61 61 65 67 67 67 67 65 65 65 64 64 64 64 63 63 62 62 63 63 62 63 61 59 60 62 63 62 60 62 66 65 64 66 66 66 65 62 62 63 60 57 56 53 53 51 48 47 48 48 50 51 52 53 52 52 52 51 51 51 51
26 28 33 37 40 45 52 58 64 71 74 74 76 76 76 75 74 72 70 69 69 68 67 67 66 66 64 61 62 65 67 69 68 67 66 65 64 63 62 61 61 60 60 59 60 62 64 64 62 60 59 61 62 62 62 62 65 67 66 66 67 67 67 66 64 64 62 56 55 56 54 53 52 49 48 48 49 50 51 53 54 54 53 53 52 52 52 52
23 25 29 34 39 44 51 58 65 70 73 74 75 74 74 75 74 73 72 72 72 70 68 67 66 64 63 63 64 66 69 70 69 67 66 65 63 62 59 57 57 57 56 55 57 60 62 62 62 62 62 62 62 61 61 61 64 65 65 65 66 66 66 66 64 62 58 55 55 55 54 54 52 47 45 46 46 47 48 50 53 54 53 53 53 53 53 53
20 23 27 32 37 42 50 59 65 68 71 74 74 73 74 76 76 75 75 74 71 67 66 66 64 63 64 64 65 66 67 69 69 68 67 65 64 63 61 59 57 56 55 56 59 60 61 63 64 64 63 63 62 61 59 59 60 61 62 62 63 63 63 63 62 60 57 56 56 56 55 55 51 46 43 42 43 44 44 46 49 51 52 53 53 53 54 54
18 21 25 30 35 41 49 57 63 67 70 72 73 74 76 77 77 76 75 72 68 64 64 63 62 62 63 64 65 65 65 66 68 68 67 66 65 64 62 60 58 57 58 59 60 60 61 62 61 61 62 63 62 61 59 60 60 60 61 61 61 61 61 61 61 60 58 57 58 58 56 52 46 41 39 39 41 42 43 44 46 50 52 52 52 52 52 53
16 19 23 28 33 39 46 54 61 65 69 72 74 76 77 76 75 74 73 70 66 63 62 61 60 61 62 64 65 64 64 65 67 67 66 65 64 63 61 60 59 60 60 60 59 59 61 60 60 62 63 64 64 64 64 64 63 62 63 63 61 59 61 63 64 62 60 60 60 58 53 47 41 38 37 38 40 41 42 44 45 48 50 49 49 50 51 52
14 17 21 25 30 36 43 51 58 63 68 74 76 76 76 75 74 73 71 68 65 63 62 62 62 61 62 64 64 63 64 64 65 65 65 64 63 63 62 61 61 60 60 59 59 59 60 60 62 65 65 65 65 65 67 67 65 65 65 62 59 61 66 66 65 63 60 59 59 54 48 43 39 36 36 38 39 40 42 44 44 46 47 46 45 47 49 51
12 16 19 23 29 34 40 47 55 62 69 74 76 75 75 74 74 73 70 67 64 62 62 62 62 62 63 63 63 63 62 61 61 62 63 64 63 63 63 62 62 61 61 60 60 60 60 61 64 66 66 66 67 67 68 68 67 67 64 61 62 67 69 66 64 62 59 58 56 50 44 41 38 35 35 37 39 40 42 45 46 47 47 46 44 45 48 51
11 15 19 23 27 32 38 45 55 62 67 71 73 74 74 74 73 71 68 66 63 62 62 61 61 60 61 63 63 63 62 60 58 59 61 62 62 62 63 62 62 62 62 62 61 61 62 64 66 67 67 68 69 70 71 69 67 65 63 63 67 70 67 64 62 59 57 57 54 47 42 40 37 33 32 35 39 40 42 45 47 48 49 49 47 47 49 51
10 13 18 23 27 32 38 45 54 61 65 68 72 74 74 73 71 68 66 65 62 61 60 59 59 59 60 62 62 62 61 59 57 58 59 61 62 62 63 63 63 62 62 62 62 62 64 66 67 68 68 70 71 72 71 68 65 64 64 66 68 68 65 63 62 59 58 59 55 47 43 40 37 34 33 36 38 40 42 44 46 48 50 51 50 50 50 51
10 13 18 23 28 34 40 47 54 60 64 67 70 72 72 71 68 67 65 64 62 60 59 58 59 59 59 60 60 60 59 58 57 57 58 60 62 63 65 65 64 63 63 63 64 64 66 67 68 68 69 71 71 69 66 65 65 65 65 65 66 66 65 64 63 60 59 60 56 48 43 40 38 37 37 38 40 41 42 44 47 49 50 52 53 53 53 52
11 14 18 23 28 33 39 47 54 60 63 65 68 69 69 68 67 66 65 63 61 59 59 59 59 59 58 58 59 59 58 57 56 56 56 58 61 64 66 66 65 65 66 65 65 65 65 66 67 68 69 70 68 65 64 66 67 68 67 67 67 67 66 66 64 60 59 60 57 50 44 41 41 39 39 40 41 42 43 45 48 50 51 53 55 55 55 54
12 14 17 21 27 32 37 44 52 57 60 62 64 65 65 65 64 64 63 61 60 59 59 59 58 57 57 57 58 58 58 57 56 55 56 58 61 63 65 65 65 65 65 65 64 64 65 67 68 68 68 67 65 64 66 69 71 71 70 69 68 67 67 65 63 60 60 61 59 53 47 44 43 42 42 42 42 43 44 45 48 51 53 54 55 56 55 53
14 15 17 21 26 32 37 43 49 54 57 58 59 60 61 61 61 60 59 58 57 57 57 57 56 55 55 56 56 56 56 55 55 56 57 58 60 62 63 63 64 64 64 64 64 65 66 67 68 69 67 66 66 66 68 72 73 72 71 69 68 67 65 64 62 62 63 63 60 56 51 47 46 46 46 46 46 47 47 47 48 51 53 54 55 55 55 52
16 17 19 21 26 32 38 43 48 51 53 54 55 55 55 55 55 54 54 54 54 53 53 53 53 54 54 55 55 55 55 55 55 56 56 57 59 60 61 61 62 63 62 62 62 63 64 65 67 68 67 66 67 67 69 72 73 71 70 68 67 67 66 65 64 64 64 63 60 57 53 50 48 48 48 48 49 49 49 49 50 51 53 54 54 55 54 52
19 18 19 20 24 30 35 40 44 46 47 48 48 48 48 48 48 48 49 49 49 50 50 50 51 52 52 52 53 53 53 53 53 53 54 56 58 58 59 60 61 62 61 62 63 63 64 66 67 67 67 66 65 65 67 69 69 69 67 67 67 67 67 66 66 65 64 61 59 57 54 50 49 48 48 48 49 50 50 51 51 52 53 54 54 53 53 52
23 21 20 18 20 25 30 33 36 38 38 38 38 38 39 41 42 44 45 45 46 47 48 48 48 48 49 50 50 50 50 50 50 51 53 55 55 55 57 59 60 61 61 63 63 64 64 65 66 66 66 66 65 66 67 67 67 66 66 66 66 66 67 66 66 64 62 60 59 56 53 51 50 49 49 50 51 52 52 52 52 52 52 52 52 52 52 52
27 26 24 22 23 25 27 29 31 33 33 33 34 34 34 35 37 39 41 42 44 45 45 45 45 45 46 47 46 46 47 47 48 50 52 53 54 54 55 57 58 59 61 61 62 62 62 63 65 64 65 66 66 66 67 67 66 66 65 66 66 66 66 66 64 63 61 60 58 55 53 52 51 50 51 52 53 54 55 55 55 53 50 49 50 51 52 54
29 29 28 27 28 29 30 31 32 32 32 33 34 35 35 35 37 38 40 41 41 41 41 41 41 41 41 41 41 42 44 45 46 47 49 50 50 52 53 55 56 57 58 59 59 59 59 61 64 63 64 64 64 64 65 65 64 64 64 65 66 66 66 64 63 63 61 60 58 55 53 53 52 52 53 53 54 56 57 57 55 52 48 47 49 51 53 55
31 31 30 30 31 32 32 32 32 32 32 33 34 35 36 37 38 39 40 39 39 38 36 36 36 36 36 37 38 40 41 42 43 43 44 45 46 48 50 52 53 53 53 53 53 54 57 60 62 62 63 63 63 62 62 61 61 62 63 64 64 64 64 63 62 61 60 59 57 55 54 54 53 53 53 54 55 57 57 56 54 50 46 45 48 51 53 54
31 32 33 34 35 36 36 36 35 34 34 33 34 35 36 38 38 38 37 36 35 35 34 34 33 33 34 35 37 38 38 39 39 39 39 39 40 42 44 46 48 48 47 47 48 50 53 56 58 59 61 61 60 59 59 59 60 61 61 61 61 61 61 60 58 58 58 57 55 55 54 53 53 53 54 55 56 56 55 53 51 48 45 45 47 51 53 53
27 29 31 34 35 37 38 39 39 38 38 37 36 36 36 36 36 35 35 34 34 33 32 32 32 33 33 34 35 35 36 35 35 35 35 34 34 36 38 40 42 42 41 41 43 47 49 51 53 55 56 56 55 55 56 58 59 60 59 58 58 58 58 57 56 55 55 55 54 53 53 52 52 53 53 53 54 53 51 50 48 46 45 45 47 49 50 51
26 27 29 31 32 33 34 35 36 36 37 37 37 37 37 36 36 35 34 34 33 32 31 30 31 32 33 34 33 33 33 32 31 31 30 29 30 33 35 36 36 34 34 35 39 43 45 47 49 51 51 51 52 53 54 55 56 57 56 56 56 56 56 55 54 53 53 53 52 51 51 50 49 49 48 48 49 48 48 47 45 44 45 46 46 46 46 47
Wind_Direction
263 262 260 259 258 256 254 252 251 250 249 249 248 246 245 243 242 242 241 241 241 242 243 242 242 242 242 242 241 241 241 241 241 242 243 243 244 245 244 244 244 243 243 243 243 243 243 243 242 243 243 243 243 243 243 243 243 242 242 241 241 242 242 243 244 245 246 247 247 248 250 250 250 250 250 252 251 249 248 247 244 241 243 246 246 246 248 249
264 262 261 259 258 256 255 253 251 250 249 248 248 247 246 245 243 242 241 240 240 240 241 241 241 241 241 241 241 241 241 240 240 240 242 243 243 245 244 244 244 244 243 244 243 243 243 243 243 243 243 243 243 243 243 243 243 242 242 242 242 242 242 243 244 245 246 247 248 248 249 250 250 249 249 250 249 246 245 245 243 241 242 245 245 244 245 247
263 262 261 260 258 257 255 254 252 250 248 248 247 247 246 245 244 243 242 241 240 239 239 240 240 240 240 240 240 240 240 240 239 239 241 242 242 243 244 243 243 243 243 243 244 243 243 243 243 243 243 243 243 243 243 243 242 242 242 242 242 242 243 243 244 244 245 247 248 248 249 249 249 248 248 249 248 246 245 244 244 243 244 245 245 243 244 245
262 261 261 260 258 257 256 254 252 250 249 247 246 246 245 245 244 244 243 242 241 240 239 239 239 239 240 240 240 240 239 239 238 239 241 240 240 242 243 243 243 243 243 243 243 243 243 243 243 243 243 243 243 243 243 243 242 241 241 242 243 243 243 244 244 244 245 246 247 248 248 248 248 246 246 248 248 246 245 243 244 244 244 245 244 244 244 245
262 260 259 259 259 257 256 254 252 251 249 248 246 246 245 244 244 243 243 242 242 241 240 239 239 238 238 239 239 239 239 238 238 239 240 238 239 240 242 242 242 242 242 242 243 243 243 243 244 244 244 243 243 243 243 243 242 241 241 242 244 244 244 244 245 245 244 244 245 246 247 246 247 245 243 245 246 245 244 243 243 244 245 246 244 243 243 244
264 260 257 257 257 257 256 254 253 251 249 248 246 246 245 244 243 243 243 242 242 241 240 239 239 238 237 237 238 238 238 238 237 239 239 237 238 239 239 241 241 241 241 241 241 242 242 243 243 244 244 244 244 243 243 243 243 242 243 244 245 245 245 245 245 245 245 244 244 245 246 245 245 244 242 243 244 244 245 244 243 243 243 244 244 242 241 241
265 262 258 255 255 255 255 254 253 251 249 248 246 245 245 244 243 243 242 242 241 241 240 239 238 238 237 236 237 238 238 237 236 238 238 235 235 237 237 239 240 241 240 240 241 241 241 242 243 243 244 244 244 244 244 244 243 243 244 245 245 245 245 245 245 245 245 245 245 245 245 245 244 244 243 243 244 245 246 246 244 243 243 244 243 243 242 241
265 262 260 256 254 253 253 253 252 251 249 248 246 245 245 244 243 242 242 241 241 241 240 239 238 237 237 236 236 237 238 237 235 235 236 235 234 235 236 237 239 240 240 240 240 241 242 242 242 243 243 243 243 244 244 244 244 244 244 245 245 245 245 245 244 244 244 244 244 244 244 244 244 245 245 244 245 245 245 246 246 245 244 244 244 245 244 242
264 262 260 257 254 252 251 251 251 250 249 247 246 245 245 244 243 242 241 241 241 240 240 239 237 237 236 235 235 235 237 236 234 234 236 235 234 235 236 236 237 239 239 240 240 241 241 240 240 241 241 242 243 244 244 245 244 245 245 245 246 246 245 245 244 244 243 244 244 243 243 243 243 244 245 244 245 245 245 245 246 245 243 243 243 243 243 242
262 261 259 257 255 253 250 249 249 249 248 247 246 245 245 244 243 242 241 240 240 240 240 238 237 236 235 235 234 235 236 235 234 235 236 236 235 234 235 236 237 238 238 239 239 239 238 238 239 240 241 242 243 243 243 243 244 245 245 245 246 246 246 245 245 244 243 243 243 243 243 242 241 242 244 244 244 244 244 244 244 244 243 242 241 241 240 241
261 260 258 256 255 253 251 248 247 247 247 246 245 245 244 244 243 242 241 240 239 239 239 239 237 235 234 234 234 234 235 234 233 235 235 235 234 232 233 234 236 237 237 237 237 237 237 238 238 240 241 241 241 241 241 242 243 244 244 244 245 245 245 245 244 243 243 243 243 243 243 243 243 242 244 244 244 243 243 243 243 244 244 243 241 240 239 240
261 259 257 255 253 252 250 248 246 245 245 245 244 244 243 243 243 242 241 240 238 238 238 238 237 235 234 233 233 234 234 232 232 234 235 235 234 232 231 231 233 234 235 235 236 236 236 237 237 238 238 238 239 240 240 241 242 243 244 244 244 244 245 244 244 243 243 243 243 243 244 244 244 242 242 243 244 243 243 243 244 244 244 243 242 241 240 239
259 257 256 254 252 249 248 247 246 244 244 243 243 243 243 242 242 241 240 240 238 237 236 237 236 235 234 232 233 234 234 232 231 233 234 235 235 233 231 230 231 232 232 233 234 235 235 236 236 236 236 237 238 238 239 240 241 244 245 245 245 245 245 245 244 243 242 243 244 244 244 244 243 242 241 242 243 243 243 243 244 244 243 244 243 242 241 241
257 255 254 252 251 248 246 245 244 243 242 242 242 242 242 241 241 240 239 239 238 236 235 235 235 235 233 232 234 234 233 232 231 232 234 234 235 233 231 230 231 232 232 232 232 233 233 234 233 234 235 236 236 236 237 239 240 242 243 243 243 243 244 244 243 242 242 243 245 245 245 244 243 243 242 241 242 243 243 243 243 243 243 243 244 243 242 241
254 253 251 250 249 247 245 243 242 242 241 240 240 240 240 241 240 239 238 237 237 236 235 233 233 233 232 232 235 234 232 232 232 231 232 233 233 232 230 228 228 230 231 232 232 232 232 232 232 233 233 234 234 235 236 237 238 239 240 240 240 240 241 242 242 242 242 243 245 246 246 245 244 242 241 241 241 242 243 243 243 242 242 242 243 244 243 243
253 250 249 247 246 245 243 241 239 239 239 239 238 238 239 239 239 238 237 236 236 235 234 232 231 231 231 233 235 234 232 231 230 229 229 230 231 230 229 227 227 227 229 231 232 232 232 231 230 231 231 233 233 234 235 235 236 238 238 239 240 239 239 240 240 241 242 243 244 245 245 245 244 242 241 242 242 243 243 243 243 243 242 242 243 244 245 245
252 249 247 245 243 243 242 240 238 237 237 237 237 237 237 238 238 238 236 235 234 234 233 231 230 229 230 233 234 233 231 229 229 228 226 228 230 230 229 227 227 227 228 230 231 232 232 232 232 232 232 233 233 234 234 235 236 237 237 238 239 238 238 237 237 239 240 242 242 243 245 245 244 242 241 242 243 243 244 244 245 244 243 242 243 244 245 246
253 249 246 244 241 240 240 239 237 235 235 235 235 235 235 236 237 237 235 234 233 233 232 230 228 227 229 232 233 232 231 230 230 229 227 229 231 231 230 229 228 227 227 229 230 231 232 232 232 232 233 234 234 235 235 234 234 235 234 235 236 237 238 237 236 237 238 240 242 243 244 245 244 243 241 241 242 243 244 244 245 246 246 245 245 245 245 246
252 249 246 243 241 238 238 237 236 234 233 233 233 233 234 234 234 235 234 233 233 232 231 229 228 227 228 231 233 233 233 232 232 230 229 230 232 233 232 230 229 228 228 229 230 231 230 230 231 232 233 235 235 234 233 232 233 234 233 234 235 238 240 239 237 238 238 239 242 243 243 243 243 243 241 240 241 243 244 245 246 247 247 246 245 244 244 245
251 248 246 243 240 237 236 236 235 233 231 230 230 231 232 232 232 233 233 233 232 231 230 229 228 228 228 231 232 232 232 232 231 229 228 229 230 232 233 232 230 229 229 229 229 230 230 229 230 231 231 232 232 231 231 232 233 234 234 235 236 239 242 241 238 240 240 240 241 242 243 244 243 243 241 241 241 242 244 246 247 247 247 247 246 244 244 244
250 248 245 242 240 237 234 234 233 232 229 228 228 228 229 230 230 230 231 232 232 231 229 228 227 227 227 229 230 229 230 230 230 229 228 228 228 230 231 231 231 230 229 229 229 229 229 229 229 230 230 230 230 229 230 232 233 235 235 236 237 238 241 241 240 241 242 243 242 241 243 244 245 245 243 241 241 242 243 244 245 246 247 247 247 246 245 245
249 247 244 242 239 236 233 231 231 231 229 227 227 227 227 227 228 228 229 230 231 231 229 227 227 227 226 226 227 227 227 227 227 227 228 228 227 228 230 230 229 228 228 228 229 229 229 228 228 229 230 230 230 230 231 232 234 235 236 237 239 240 241 242 242 242 243 245 245 244 244 245 246 247 244 242 240 240 242 243 244 245 246 247 247 246 246 245
248 245 243 241 238 236 232 229 229 229 228 226 225 225 225 225 226 226 227 228 230 229 228 226 226 228 226 225 226 226 225 225 225 225 226 226 226 226 227 228 227 227 227 227 228 228 227 226 227 228 229 230 231 231 231 233 235 236 238 240 241 242 242 242 241 241 241 243 246 246 246 245 246 247 246 244 241 239 240 242 244 245 245 246 246 246 246 246
249 244 240 239 237 235 231 228 226 226 227 226 224 224 223 223 223 224 225 226 228 228 227 225 225 227 226 224 225 225 224 224 225 225 226 226 225 224 224 224 225 225 225 226 226 226 224 223 225 225 227 229 229 230 231 233 235 237 238 239 240 241 240 239 239 239 240 243 246 249 249 248 248 249 248 247 246 243 241 242 243 244 245 244 244 245 245 246
249 244 239 236 235 234 231 226 224 224 225 224 224 223 222 221 221 221 222 224 226 227 227 226 225 227 226 223 224 225 224 224 225 226 227 227 226 225 223 223 223 223 224 224 224 224 222 222 224 224 225 227 227 228 230 231 233 234 235 236 237 238 238 238 238 239 241 245 248 251 252 251 251 251 250 249 248 246 244 244 243 244 245 245 244 244 245 246
249 244 238 234 232 232 230 225 222 222 223 223 223 221 220 220 220 219 219 221 225 226 225 225 225 227 226 222 222 224 224 224 225 226 226 227 227 226 224 223 222 222 222 222 222 222 221 222 224 224 225 227 227 228 229 230 232 232 233 234 235 237 238 238 239 240 242 245 247 249 250 252 252 252 252 252 251 249 247 247 246 246 246 247 246 245 246 248
246 243 238 233 230 230 228 224 221 220 221 222 221 220 219 218 218 218 217 218 223 225 224 223 225 226 224 221 221 222 222 222 223 224 225 225 226 226 226 224 223 222 222 221 221 221 222 223 224 224 225 227 228 229 230 231 232 233 233 234 235 237 239 239 239 240 242 244 246 247 249 251 253 254 254 254 254 253 251 250 249 249 248 248 248 248 248 248
243 239 237 232 228 227 225 222 219 218 219 220 220 219 218 217 216 217 216 216 220 224 222 222 225 225 222 220 220 220 221 221 220 221 222 223 224 224 224 224 223 223 223 222 220 220 221 222 224 225 226 228 229 229 230 230 231 233 233 234 235 238 239 240 240 240 242 244 246 248 250 252 253 254 254 254 254 254 254 252 250 249 249 248 249 249 249 249
242 236 234 231 226 223 222 219 217 215 217 218 218 217 216 215 215 215 215 215 219 223 222 222 224 224 223 221 220 220 221 222 221 221 221 220 222 223 222 222 222 222 222 221 219 219 219 219 222 224 224 226 227 228 229 229 230 233 233 234 236 238 240 241 241 241 243 245 248 250 252 253 253 251 251 252 252 253 253 251 249 248 248 248 248 249 249 249
242 234 231 229 225 220 218 216 213 213 214 215 216 216 215 214 213 214 215 215 219 221 222 222 222 223 222 220 220 220 221 222 222 222 223 222 222 222 222 222 222 223 222 221 219 219 219 219 220 221 222 223 225 226 227 227 229 232 233 234 236 239 241 242 242 243 244 246 250 252 252 252 252 250 250 251 251 251 251 251 250 249 249 249 249 249 250 250
242 233 228 225 221 216 213 211 210 211 211 212 214 214 213 212 212 213 214 215 217 219 221 222 221 221 221 219 219 219 220 221 221 222 223 224 224 225 225 226 226 226 226 224 223 222 221 221 221 221 221 223 224 226 227 227 229 232 233 235 237 239 241 243 243 244 246 248 251 252 252 251 251 251 251 251 251 251 250 250 250 249 248 247 247 247 248 250
239 231 223 219 216 211 207 207 208 209 209 209 211 212 211 211 211 212 214 215 216 217 218 220 220 219 219 218 219 218 218 219 220 221 222 224 225 226 227 228 229 230 230 230 229 227 226 224 223 223 223 224 225 226 227 228 231 234 235 237 239 241 243 245 246 248 249 249 250 251 251 251 251 251 251 250 250 249 249 248 248 247 246 245 244 245 245 246
234 226 219 215 211 207 203 203 205 206 207 207 209 209 209 209 210 211 213 215 216 216 218 220 220 219 218 219 219 219 219 219 219 219 220 222 224 225 225 225 227 228 228 228 229 228 228 226 224 224 225 226 227 228 229 231 233 236 238 240 241 243 245 247 249 250 250 250 250 251 251 251 251 249 247 245 245 246 247 247 247 246 244 243 242 243 244 246
229 221 216 212 208 205 202 201 202 203 204 205 206 207 208 209 210 211 213 215 215 216 218 221 222 220 219 219 220 220 220 220 220 220 220 221 223 225 225 226 226 226 226 226 226 226 227 228 228 228 228 228 229 229 230 231 232 235 237 238 240 242 245 247 248 248 248 250 251 251 250 250 248 245 243 242 243 244 246 246 246 246 245 243 242 242 244 245
223 215 211 209 206 204 202 200 200 200 200 202 203 205 207 208 209 211 213 214 215 215 217 220 222 222 220 220 221 221 221 220 219 220 221 222 224 225 226 227 227 228 228 227 227 227 227 227 227 227 226 227 229 229 230 231 231 233 235 237 239 242 245 245 246 247 248 250 251 250 249 247 244 241 240 240 240 241 243 245 246 247 247 245 243 243 243 244
214 207 205 204 203 201 201 199 198 196 196 199 202 204 206 207 209 211 213 214 214 214 216 218 219 220 220 221 221 222 222 222 220 220 220 221 223 225 226 227 227 228 229 229 228 229 229 228 228 227 226 226 227 229 230 231 231 233 235 238 241 243 244 245 246 248 249 250 250 250 248 247 245 243 241 240 239 238 240 243 245 247 248 247 245 244 244 244
204 199 197 198 198 198 198 197 195 193 195 197 200 203 205 207 208 210 212 213 214 214 215 218 219 219 218 219 221 222 223 223 222 222 221 221 223 224 226 227 228 228 229 229 228 229 228 228 228 229 228 227 227 227 229 230 230 231 234 236 239 241 242 244 246 248 248 248 247 247 247 247 246 245 245 244 243 240 240 242 243 246 248 247 244 243 244 243
193 191 189 190 192 192 193 193 191 191 194 196 199 201 204 206 208 210 211 212 213 214 215 218 220 220 219 218 219 221 222 224 224 223 223 223 224 225 227 228 229 229 230 230 229 229 229 228 228 228 228 228 227 228 229 230 231 231 231 233 236 239 241 243 246 247 248 248 246 242 243 245 244 244 245 246 245 244 243 244 245 245 247 247 245 242 242 242
178 181 182 183 184 185 187 189 189 189 192 194 197 200 203 206 208 209 210 211 212 213 215 217 219 220 220 220 220 220 221 222 223 223 223 223 224 226 228 229 229 230 231 231 231 231 231 230 230 229 228 228 228 229 230 232 233 233 232 233 236 239 240 242 244 245 246 247 244 239 237 239 240 239 239 242 244 244 244 244 245 245 246 247 246 244 242 241
161 169 176 178 180 181 182 184 186 187 190 193 196 199 202 204 206 207 209 210 211 212 215 217 218 219 220 220 221 222 222 222 223 223 224 224 224 226 228 229 230 230 231 232 232 231 232 232 232 232 231 230 230 231 232 233 234 234 234 235 237 240 241 241 242 243 244 246 245 240 236 236 238 238 239 242 244 245 245 244 243 244 244 245 245 245 243 241
146 159 170 174 177 180 180 181 183 186 188 191 194 198 201 203 204 206 208 210 211 212 214 216 217 217 218 219 220 222 223 224 225 225 225 226 226 227 229 230 230 231 231 232 232 233 233 234 234 233 233 234 234 233 233 232 232 233 233 234 236 238 239 240 241 242 244 246 246 243 238 236 238 241 243 246 248 250 250 248 246 244 243 243 244 244 244 243
133 146 161 169 172 175 178 180 182 184 187 190 193 197 199 202 203 205 207 209 210 212 213 214 215 216 217 218 220 222 223 224 225 226 227 227 228 228 230 231 231 232 232 232 233 233 234 235 235 235 234 234 235 233 232 231 231 231 231 232 234 236 238 240 241 241 243 245 245 243 239 237 239 242 245 248 250 252 253 252 250 247 245 244 244 244 244 244
122 135 149 162 167 169 173 177 180 182 185 189 192 195 198 200 203 205 207 208 210 212 213 214 215 216 217 218 220 223 225 226 227 227 228 228 229 229 230 231 232 232 233 233 233 233 233 234 235 235 234 233 233 232 231 231 231 231 231 232 233 235 237 239 240 240 241 242 244 244 241 238 238 240 243 246 248 251 252 252 251 249 247 246 245 244 244 244
112 126 140 154 163 165 169 174 177 181 184 187 191 194 196 199 201 203 205 207 209 211 213 214 215 216 217 219 221 223 225 227 228 229 229 230 230 230 231 231 232 232 233 234 234 235 235 235 235 236 235 233 232 232 231 232 232 231 231 232 233 235 237 238 239 240 240 242 244 245 245 243 242 244 246 249 251 253 255 256 254 251 248 247 246 245 244 243
102 116 130 146 158 162 165 171 175 179 182 185 189 192 194 196 199 201 203 206 208 210 212 214 216 218 219 220 222 224 226 227 229 230 231 232 232 231 231 231 231 231 232 232 233 233 233 234 234 234 235 234 234 234 234 234 234 233 233 233 234 235 236 237 239 240 241 243 244 246 248 248 248 249 251 253 256 257 258 259 258 254 250 248 247 246 245 244
99 105 114 129 145 154 159 165 170 174 178 182 185 188 191 194 196 199 202 204 207 209 212 214 216 218 220 222 223 224 226 227 228 229 230 231 232 231 232 232 231 231 230 230 231 230 230 231 231 231 232 232 231 230 231 232 233 233 233 234 234 235 237 238 239 240 242 243 244 245 247 249 249 251 252 253 255 256 257 258 257 255 251 248 248 247 246 245
104 108 114 125 136 144 150 157 163 169 173 177 181 184 189 192 195 197 200 203 206 208 210 213 215 218 220 221 222 223 225 226 227 228 229 230 231 231 231 232 232 232 231 230 230 229 229 230 231 230 230 230 228 228 228 229 229 230 231 232 234 235 237 238 239 240 241 242 243 244 245 247 248 249 251 252 253 255 256 256 256 253 251 248 246 246 245 244
108 113 121 131 138 144 150 156 162 168 172 176 180 183 187 191 194 196 198 201 204 207 209 210 212 215 218 220 222 224 225 227 228 229 230 231 231 231 231 230 231 231 231 231 230 229 228 229 229 229 229 229 229 228 228 228 229 228 229 230 233 235 237 238 239 240 241 242 244 245 245 246 248 249 250 252 254 255 256 256 255 253 250 246 244 243 244 244
116 121 128 135 142 147 152 158 164 168 173 177 180 182 185 189 192 194 196 197 200 202 204 207 210 213 217 221 224 227 228 229 230 230 231 232 232 231 231 230 229 229 229 230 229 228 227 227 228 228 228 228 228 227 227 228 228 229 229 230 232 234 236 238 239 240 242 243 245 246 247 248 249 250 251 253 254 255 256 255 253 251 248 245 243 242 242 242
125 131 138 144 150 154 157 162 167 171 175 178 181 183 186 188 190 192 193 194 196 198 200 204 209 214 218 222 225 226 227 228 228 229 229 230 230 229 229 229 227 225 225 225 225 225 226 226 227 227 227 227 227 227 226 226 226 227 229 230 232 235 237 238 239 241 242 244 245 246 248 249 250 251 251 251 252 252 252 251 249 247 245 242 241 241 241 240
129 136 144 150 155 159 162 167 170 173 176 179 181 184 187 189 189 189 191 193 195 198 200 204 208 212 216 218 220 222 223 223 223 223 222 221 222 221 220 220 219 217 217 218 219 222 223 224 225 226 226 226 227 226 225 226 226 226 227 229 231 234 237 238 239 240 242 243 244 245 246 248 249 250 250 250 249 249 247 245 243 243 242 239 238 239 239 238
134 142 149 154 159 163 166 170 172 175 177 179 182 185 187 189 189 190 192 194 195 197 200 204 207 209 211 213 215 217 217 215 214 214 212 210 211 211 209 208 207 208 209 212 215 218 220 221 221 222 222 223 223 223 223 225 226 226 228 229 231 234 236 237 239 240 241 243 244 244 245 246 246 247 246 245 244 243 242 240 239 238 238 237 237 238 238 238
Height
10612 10612 10612 10613 10613 10614 10614 10615 10617 10618 10620 10622 10624 10626 10628 10630 10632 10634 10637 10639 10642 10644 10647 10651 10654 10657 10660 10663 10667 10669 10673 10677 10679 10682 10677 10676 10686 10691 10690 10691 10695 10701 10704 10706 10709 10712 10715 10718 10722 10727 10730 10733 10736 10740 10745 10750 10756 10762 10765 10765 10761 10759 10761 10766 10772 10776 10780 10783 10785 10786 10786 10789 10794 10801 10802 10802 10807 10809 10810 10811 10814 10814 10810 10811 10815 10816 10815 10816
10603 10603 10603 10604 10605 10606 10606 10607 10609 10610 10612 10613 10616 10618 10620 10622 10624 10626 10629 10631 10634 10637 10640 10643 10646 10650 10652 10656 10660 10662 10666 10669 10674 10674 10666 10673 10686 10683 10682 10686 10690 10695 10697 10699 10703 10706 10709 10712 10716 10719 10723 10726 10730 10735 10739 10745 10751 10756 10758 10756 10751 10751 10758 10764 10769 10773 10776 10779 10781 10781 10782 10785 10790 10796 10798 10797 10801 10804 10805 10806 10808 10808 10806 10808 10812 10813 10813 10814
10593 10594 10594 10595 10596 10597 10598 10599 10600 10602 10603 10605 10607 10609 10612 10614 10616 10618 10621 10624 10627 10630 10633 10636 10639 10642 10645 10649 10652 10655 10658 10663 10668 10663 10659 10674 10680 10674 10676 10681 10684 10688 10691 10694 10697 10700 10703 10706 10709 10712 10716 10720 10724 10728 10732 10739 10745 10748 10750 10746 10741 10747 10756 10761 10765 10769 10773 10775 10776 10777 10779 10782 10785 10791 10793 10792 10795 10799 10801 10802 10803 10803 10804 10806 10808 10810 10810 10811
10584 10584 10585 10585 10586 10588 10589 10590 10592 10594 10595 10597 10598 10601 10603 10605 10607 10610 10613 10616 10619 10622 10626 10628 10632 10635 10638 10642 10645 10648 10651 10656 10659 10653 10657 10671 10670 10667 10672 10675 10679 10682 10685 10688 10690 10694 10697 10700 10703 10707 10711 10714 10718 10722 10726 10732 10736 10741 10741 10734 10734 10745 10753 10756 10760 10765 10769 10771 10771 10772 10774 10777 10779 10784 10788 10787 10790 10794 10795 10798 10799 10799 10800 10802 10805 10806 10807 10808
10575 10575 10575 10576 10577 10578 10579 10581 10583 10585 10587 10588 10590 10592 10594 10596 10599 10601 10605 10608 10611 10614 10618 10621 10625 10628 10631 10635 10638 10640 10643 10648 10650 10647 10655 10663 10661 10663 10667 10669 10674 10675 10679 10683 10684 10688 10691 10694 10698 10702 10705 10708 10712 10716 10720 10724 10728 10733 10731 10726 10732 10743 10748 10751 10756 10760 10764 10765 10765 10767 10768 10771 10773 10777 10782 10782 10783 10786 10789 10793 10795 10795 10797 10798 10802 10803 10804 10806
10566 10565 10566 10566 10567 10568 10570 10572 10574 10576 10578 10580 10582 10584 10585 10588 10590 10593 10596 10599 10603 10606 10610 10614 10618 10622 10625 10628 10631 10633 10637 10641 10643 10642 10648 10655 10655 10657 10661 10664 10667 10670 10674 10676 10678 10682 10685 10689 10693 10696 10699 10703 10707 10710 10713 10717 10722 10726 10722 10722 10730 10738 10742 10747 10752 10755 10758 10759 10760 10761 10761 10764 10766 10768 10775 10777 10777 10780 10784 10789 10790 10791 10793 10794 10797 10798 10800 10802
10556 10556 10556 10556 10557 10559 10560 10562 10564 10566 10569 10571 10573 10575 10577 10578 10580 10584 10587 10591 10595 10598 10602 10607 10611 10615 10618 10622 10625 10627 10631 10633 10635 10635 10639 10646 10649 10650 10655 10659 10661 10665 10669 10670 10672 10676 10680 10685 10688 10690 10694 10698 10700 10704 10708 10712 10717 10717 10716 10720 10726 10732 10737 10742 10747 10749 10752 10754 10755 10756 10755 10757 10759 10762 10769 10772 10773 10777 10780 10783 10784 10787 10789 10791 10792 10794 10797 10798
10545 10545 10546 10546 10547 10549 10551 10552 10554 10557 10559 10562 10564 10566 10568 10569 10572 10575 10578 10583 10586 10590 10594 10598 10604 10608 10611 10616 10618 10622 10624 10623 10625 10626 10629 10638 10642 10645 10650 10654 10657 10660 10663 10665 10667 10671 10677 10680 10682 10685 10689 10691 10694 10700 10704 10708 10711 10710 10711 10717 10721 10726 10732 10735 10740 10743 10746 10747 10747 10749 10748 10749 10755 10758 10763 10767 10770 10774 10776 10777 10779 10783 10786 10787 10789 10791 10793 10793
10534 10534 10535 10535 10536 10538 10540 10542 10545 10547 10549 10552 10554 10557 10559 10561 10564 10566 10570 10574 10577 10582 10586 10590 10596 10600 10605 10609 10612 10617 10613 10610 10617 10621 10624 10632 10638 10641 10645 10649 10652 10655 10657 10660 10663 10668 10672 10673 10675 10679 10682 10686 10691 10696 10700 10703 10704 10703 10707 10713 10716 10721 10725 10729 10733 10737 10740 10741 10740 10740 10741 10743 10750 10754 10757 10762 10766 10768 10771 10772 10774 10777 10780 10782 10785 10788 10789 10788
10522 10523 10523 10524 10525 10527 10529 10532 10535 10537 10539 10542 10544 10547 10549 10552 10555 10558 10562 10566 10570 10574 10577 10583 10587 10592 10599 10602 10608 10608 10599 10602 10615 10618 10621 10627 10633 10637 10640 10644 10647 10649 10652 10655 10659 10663 10664 10665 10669 10673 10678 10684 10688 10692 10696 10698 10697 10698 10704 10709 10712 10716 10719 10723 10727 10731 10734 10735 10733 10731 10733 10736 10744 10750 10752 10756 10761 10763 10765 10767 10769 10771 10774 10777 10781 10783 10784 10783
10510 10511 10512 10513 10514 10516 10518 10520 10523 10526 10529 10532 10534 10537 10540 10543 10546 10550 10554 10558 10562 10565 10569 10574 10579 10585 10590 10595 10602 10595 10587 10601 10612 10612 10615 10619 10624 10630 10633 10638 10641 10643 10647 10650 10654 10655 10656 10659 10665 10671 10676 10679 10682 10686 10690 10691 10692 10694 10699 10705 10708 10710 10713 10717 10720 10724 10727 10728 10724 10722 10725 10730 10739 10747 10748 10750 10754 10756 10759 10761 10763 10766 10769 10773 10776 10778 10778 10779
10496 10498 10499 10501 10502 10504 10506 10509 10512 10515 10518 10521 10525 10527 10530 10533 10537 10541 10545 10549 10553 10557 10562 10566 10571 10577 10582 10590 10591 10579 10582 10599 10605 10607 10611 10612 10616 10622 10626 10630 10633 10636 10640 10644 10647 10648 10650 10655 10662 10667 10670 10673 10677 10682 10684 10686 10688 10689 10694 10701 10703 10705 10707 10710 10714 10718 10721 10719 10714 10716 10721 10726 10733 10741 10743 10744 10748 10749 10752 10756 10759 10763 10765 10766 10769 10771 10773 10774
10483 10484 10486 10488 10489 10492 10494 10497 10500 10503 10507 10511 10514 10517 10521 10524 10527 10532 10537 10541 10545 10549 10554 10558 10564 10569 10576 10584 10575 10568 10582 10594 10598 10603 10605 10607 10611 10615 10620 10623 10625 10628 10632 10637 10639 10641 10645 10651 10658 10661 10664 10669 10673 10677 10678 10681 10685 10686 10692 10697 10698 10701 10703 10705 10708 10712 10714 10710 10708 10712 10717 10720 10726 10733 10738 10740 10741 10742 10746 10751 10755 10758 10759 10760 10762 10765 10767 10769
10468 10469 10471 10473 10476 10479 10482 10485 10488 10491 10495 10500 10504 10507 10511 10514 10518 10523 10528 10532 10536 10541 10546 10551 10557 10562 10571 10572 10559 10564 10580 10586 10594 10598 10599 10602 10604 10607 10613 10616 10619 10622 10625 10629 10632 10636 10640 10646 10653 10656 10660 10666 10668 10672 10674 10678 10683 10684 10688 10692 10693 10696 10697 10698 10702 10706 10708 10704 10703 10707 10711 10714 10719 10727 10732 10734 10734 10736 10740 10745 10749 10751 10754 10756 10756 10759 10762 10765
10451 10453 10456 10459 10462 10465 10469 10472 10475 10479 10483 10488 10493 10497 10502 10505 10509 10513 10519 10523 10528 10533 10537 10544 10551 10556 10564 10558 10549 10561 10575 10582 10588 10590 10592 10596 10596 10598 10603 10606 10611 10615 10618 10622 10626 10630 10635 10641 10648 10652 10656 10659 10663 10668 10671 10676 10679 10680 10683 10685 10688 10690 10691 10693 10696 10700 10701 10699 10700 10702 10704 10707 10713 10721 10725 10726 10729 10732 10735 10739 10742 10745 10748 10751 10751 10753 10758 10760
10435 10437 10440 10444 10448 10450 10454 10458 10462 10467 10472 10477 10481 10487 10492 10495 10499 10504 10509 10514 10519 10524 10529 10537 10544 10550 10554 10545 10543 10558 10568 10573 10575 10578 10586 10588 10584 10586 10590 10597 10603 10608 10612 10615 10621 10625 10630 10638 10644 10647 10650 10654 10660 10665 10668 10673 10675 10676 10679 10680 10682 10684 10686 10688 10691 10694 10694 10695 10697 10696 10697 10701 10707 10714 10718 10721 10725 10728 10731 10734 10736 10738 10742 10745 10746 10749 10753 10754
10417 10420 10424 10428 10433 10436 10440 10445 10450 10454 10460 10465 10470 10477 10482 10486 10490 10495 10500 10505 10511 10516 10522 10531 10537 10542 10542 10535 10539 10549 10555 10560 10564 10572 10580 10577 10574 10576 10583 10593 10598 10603 10607 10609 10615 10621 10627 10635 10640 10643 10647 10652 10657 10660 10665 10672 10672 10671 10674 10675 10676 10677 10679 10683 10687 10689 10689 10691 10691 10690 10692 10694 10699 10708 10714 10718 10721 10724 10728 10729 10729 10731 10736 10740 10742 10746 10748 10749
10399 10403 10408 10412 10416 10421 10426 10431 10436 10442 10448 10454 10459 10466 10472 10476 10480 10485 10491 10496 10502 10508 10516 10524 10528 10532 10531 10527 10532 10539 10546 10555 10561 10569 10573 10570 10569 10573 10581 10588 10592 10597 10601 10604 10612 10617 10624 10631 10635 10639 10644 10650 10654 10659 10665 10667 10665 10665 10668 10669 10669 10672 10674 10679 10683 10684 10685 10686 10684 10686 10687 10687 10692 10702 10711 10715 10717 10720 10723 10723 10723 10726 10730 10735 10738 10742 10743 10743
10382 10387 10392 10395 10400 10408 10412 10416 10422 10429 10436 10443 10449 10455 10461 10465 10470 10476 10482 10488 10496 10502 10508 10516 10520 10523 10523 10522 10527 10535 10545 10552 10558 10565 10568 10566 10567 10570 10577 10583 10587 10593 10597 10602 10608 10613 10619 10625 10630 10637 10643 10648 10651 10655 10658 10657 10657 10658 10661 10663 10665 10669 10671 10674 10678 10679 10681 10681 10680 10681 10681 10680 10686 10697 10707 10713 10715 10717 10718 10718 10719 10721 10724 10728 10732 10735 10735 10736
10366 10370 10375 10379 10386 10394 10398 10403 10409 10416 10424 10431 10437 10444 10450 10454 10460 10467 10475 10482 10488 10493 10501 10509 10513 10515 10516 10518 10524 10532 10540 10546 10552 10558 10560 10559 10562 10566 10572 10579 10584 10589 10594 10600 10603 10607 10613 10620 10629 10636 10639 10641 10643 10647 10649 10649 10651 10652 10656 10660 10664 10667 10666 10669 10674 10673 10675 10675 10674 10674 10673 10674 10682 10693 10704 10710 10713 10715 10715 10715 10715 10716 10718 10720 10724 10727 10728 10730
10350 10354 10358 10364 10371 10378 10385 10390 10396 10404 10412 10419 10425 10432 10437 10442 10450 10460 10469 10475 10479 10486 10495 10502 10505 10506 10508 10512 10518 10525 10532 10539 10545 10549 10551 10552 10557 10562 10567 10574 10580 10586 10590 10593 10596 10601 10608 10619 10628 10630 10631 10632 10635 10639 10642 10644 10645 10648 10653 10657 10661 10663 10661 10664 10669 10668 10669 10668 10667 10668 10668 10672 10681 10690 10700 10707 10711 10712 10711 10711 10711 10712 10713 10715 10717 10720 10722 10723
10335 10339 10344 10350 10356 10363 10371 10378 10385 10392 10399 10407 10414 10419 10423 10431 10443 10454 10463 10468 10473 10480 10488 10494 10498 10496 10499 10504 10509 10517 10525 10531 10536 10540 10543 10546 10553 10559 10563 10568 10575 10580 10582 10585 10591 10598 10608 10619 10622 10622 10622 10624 10629 10634 10637 10639 10640 10644 10650 10654 10657 10658 10656 10660 10663 10664 10664 10661 10659 10662 10665 10673 10680 10687 10695 10702 10706 10707 10706 10706 10707 10708 10709 10710 10711 10713 10715 10714
10320 10325 10330 10335 10342 10349 10357 10366 10373 10379 10386 10394 10401 10406 10412 10424 10438 10448 10456 10461 10466 10472 10479 10486 10488 10485 10491 10498 10502 10510 10518 10523 10527 10531 10535 10541 10549 10553 10556 10563 10568 10571 10575 10581 10589 10596 10606 10613 10613 10613 10616 10619 10625 10630 10632 10634 10637 10643 10648 10651 10652 10651 10652 10655 10656 10658 10658 10654 10651 10655 10663 10672 10678 10683 10690 10696 10699 10701 10701 10702 10703 10704 10704 10704 10705 10707 10708 10706
10306 10311 10317 10322 10328 10335 10344 10354 10361 10367 10374 10382 10388 10396 10406 10419 10431 10439 10448 10455 10459 10464 10470 10476 10478 10477 10482 10490 10496 10504 10510 10514 10520 10525 10530 10536 10542 10546 10551 10556 10559 10563 10571 10577 10582 10589 10599 10603 10601 10605 10610 10614 10619 10622 10626 10630 10635 10640 10644 10646 10645 10643 10645 10646 10648 10651 10651 10647 10646 10653 10662 10670 10675 10680 10686 10691 10693 10694 10696 10697 10698 10698 10698 10698 10700 10701 10700 10700
10293 10298 10304 10310 10316 10322 10332 10342 10349 10356 10363 10370 10379 10389 10400 10411 10421 10432 10442 10449 10452 10456 10461 10468 10471 10468 10471 10485 10495 10498 10503 10510 10518 10522 10527 10533 10536 10540 10544 10547 10552 10559 10565 10569 10574 10582 10590 10592 10593 10599 10604 10607 10611 10616 10622 10628 10631 10635 10639 10640 10637 10634 10635 10638 10642 10646 10646 10646 10647 10652 10659 10666 10671 10676 10682 10685 10686 10688 10690 10692 10693 10693 10692 10693 10695 10695 10693 10694
10282 10286 10292 10298 10305 10310 10319 10330 10339 10346 10352 10361 10370 10380 10392 10402 10413 10425 10434 10442 10445 10447 10452 10459 10460 10457 10467 10485 10490 10489 10498 10508 10512 10515 10521 10526 10529 10532 10536 10541 10548 10553 10556 10560 10566 10575 10582 10585 10588 10595 10598 10601 10605 10612 10619 10623 10626 10630 10633 10632 10628 10626 10628 10632 10638 10642 10644 10644 10645 10647 10654 10662 10667 10671 10677 10680 10680 10682 10685 10687 10688 10688 10688 10688 10690 10690 10689 10691
10272 10276 10281 10288 10294 10300 10309 10320 10328 10336 10344 10352 10361 10372 10384 10394 10406 10417 10426 10434 10436 10435 10443 10450 10448 10451 10466 10477 10478 10483 10494 10498 10501 10507 10513 10517 10521 10525 10531 10538 10543 10546 10549 10553 10562 10571 10577 10580 10584 10590 10593 10596 10603 10611 10616 10619 10622 10626 10625 10623 10621 10620 10621 10625 10634 10639 10639 10638 10638 10643 10652 10659 10663 10668 10672 10675 10675 10677 10680 10683 10683 10683 10683 10683 10684 10685 10686 10687
10264 10268 10272 10277 10284 10290 10300 10310 10319 10329 10336 10343 10353 10365 10377 10388 10400 10409 10417 10425 10424 10424 10435 10440 10438 10447 10460 10465 10472 10481 10483 10484 10491 10497 10502 10508 10514 10519 10526 10533 10537 10540 10542 10550 10560 10566 10569 10575 10580 10584 10588 10594 10602 10607 10608 10612 10617 10617 10614 10615 10615 10613 10613 10619 10628 10632 10631 10631 10635 10642 10651 10656 10661 10665 10667 10669 10670 10672 10675 10677 10677 10676 10677 10678 10679 10680 10681 10683
10257 10260 10264 10269 10275 10283 10291 10301 10312 10322 10328 10336 10348 10358 10369 10381 10391 10400 10409 10415 10414 10418 10426 10429 10434 10445 10454 10462 10471 10474 10474 10479 10486 10490 10495 10502 10507 10512 10519 10524 10527 10531 10537 10546 10554 10557 10562 10569 10572 10575 10583 10591 10595 10596 10599 10606 10610 10605 10605 10608 10608 10606 10606 10612 10622 10625 10625 10629 10634 10642 10650 10652 10655 10660 10662 10664 10666 10666 10668 10669 10669 10670 10671 10672 10674 10675 10676 10677
10251 10254 10257 10262 10268 10276 10284 10294 10305 10313 10319 10330 10340 10349 10361 10373 10384 10393 10401 10406 10408 10413 10419 10423 10431 10439 10447 10458 10465 10466 10470 10475 10480 10486 10492 10496 10501 10506 10512 10516 10520 10526 10532 10540 10547 10552 10556 10560 10563 10570 10579 10582 10583 10587 10592 10600 10599 10594 10598 10602 10600 10600 10601 10606 10615 10618 10620 10630 10635 10639 10644 10645 10649 10655 10657 10658 10660 10660 10660 10661 10663 10664 10666 10668 10669 10669 10670 10672
10245 10249 10252 10256 10262 10269 10277 10287 10296 10302 10311 10323 10332 10341 10355 10367 10377 10385 10392 10397 10399 10403 10410 10416 10424 10432 10442 10452 10455 10458 10463 10467 10473 10481 10486 10491 10497 10503 10509 10515 10520 10525 10530 10537 10544 10547 10550 10555 10562 10569 10572 10573 10576 10581 10587 10591 10589 10588 10593 10595 10594 10596 10596 10600 10608 10612 10619 10631 10633 10632 10635 10638 10643 10649 10652 10653 10653 10653 10653 10654 10656 10658 10660 10662 10663 10664 10665 10666
10241 10244 10247 10251 10256 10262 10271 10280 10287 10295 10306 10317 10325 10337 10351 10361 10369 10376 10381 10383 10385 10394 10403 10410 10418 10429 10437 10443 10445 10450 10454 10459 10468 10475 10480 10486 10493 10500 10508 10515 10519 10524 10531 10537 10540 10542 10547 10553 10558 10561 10564 10567 10572 10577 10581 10584 10584 10585 10589 10589 10590 10593 10593 10597 10603 10609 10618 10626 10625 10625 10629 10631 10637 10644 10646 10647 10646 10646 10646 10647 10648 10650 10653 10655 10657 10659 10660 10660
10238 10240 10243 10246 10251 10257 10264 10271 10280 10290 10301 10311 10321 10334 10345 10351 10358 10365 10369 10372 10381 10394 10402 10407 10415 10424 10431 10436 10440 10444 10449 10455 10462 10468 10474 10480 10486 10493 10501 10507 10513 10519 10525 10529 10531 10536 10542 10546 10550 10554 10560 10564 10569 10574 10578 10582 10583 10584 10585 10587 10589 10589 10591 10595 10600 10605 10612 10616 10616 10618 10621 10624 10633 10639 10641 10642 10641 10640 10640 10641 10641 10642 10645 10647 10650 10652 10654 10655
10234 10237 10239 10243 10247 10253 10259 10266 10274 10285 10296 10307 10319 10328 10335 10341 10350 10357 10363 10371 10383 10394 10400 10407 10414 10421 10427 10431 10434 10440 10446 10452 10458 10464 10470 10475 10481 10488 10495 10502 10508 10512 10516 10519 10523 10530 10535 10541 10548 10555 10558 10561 10565 10570 10574 10575 10576 10578 10579 10581 10583 10585 10588 10591 10592 10596 10603 10605 10606 10608 10612 10619 10629 10635 10636 10637 10636 10636 10636 10635 10635 10635 10637 10640 10644 10646 10648 10649
10232 10234 10237 10241 10246 10251 10257 10263 10271 10282 10294 10305 10313 10320 10327 10337 10347 10354 10361 10371 10381 10389 10397 10404 10410 10416 10422 10426 10429 10436 10441 10446 10453 10460 10467 10473 10479 10485 10491 10498 10502 10505 10509 10514 10521 10526 10530 10538 10544 10547 10550 10553 10557 10561 10564 10564 10568 10572 10572 10574 10580 10584 10583 10581 10582 10588 10595 10597 10596 10599 10607 10616 10624 10628 10631 10631 10631 10632 10631 10630 10629 10629 10631 10635 10638 10640 10641 10642
10231 10233 10236 10240 10244 10249 10255 10261 10270 10281 10290 10298 10306 10315 10325 10335 10343 10349 10358 10368 10377 10385 10392 10397 10402 10408 10415 10420 10426 10432 10436 10442 10449 10456 10463 10470 10474 10479 10485 10490 10495 10499 10503 10510 10516 10520 10525 10532 10534 10536 10541 10546 10549 10552 10554 10557 10564 10566 10567 10574 10581 10577 10570 10570 10575 10582 10588 10590 10590 10595 10603 10611 10617 10622 10625 10625 10626 10627 10625 10625 10625 10624 10626 10631 10633 10635 10636 10636
10230 10232 10235 10239 10243 10248 10254 10261 10270 10279 10286 10293 10302 10313 10323 10331 10337 10345 10355 10365 10374 10381 10387 10392 10396 10402 10408 10416 10422 10428 10433 10439 10446 10453 10460 10465 10469 10474 10479 10484 10489 10493 10497 10503 10508 10513 10519 10524 10524 10527 10534 10538 10541 10543 10544 10550 10556 10559 10567 10575 10571 10561 10559 10566 10571 10576 10581 10584 10587 10593 10599 10605 10610 10616 10619 10620 10620 10621 10621 10620 10620 10621 10622 10625 10628 10629 10630 10630
10229 10231 10234 10238 10242 10247 10254 10261 10268 10276 10283 10292 10302 10312 10319 10326 10334 10343 10354 10363 10370 10377 10383 10388 10394 10400 10405 10411 10417 10423 10429 10437 10444 10450 10456 10461 10466 10469 10473 10478 10483 10488 10492 10496 10501 10506 10510 10512 10514 10519 10525 10530 10533 10534 10536 10543 10550 10557 10564 10564 10555 10551 10559 10566 10567 10572 10576 10577 10583 10591 10595 10599 10605 10610 10613 10613 10613 10615 10616 10616 10616 10617 10617 10619 10622 10623 10623 10624
10230 10232 10234 10237 10241 10247 10253 10260 10267 10274 10283 10292 10301 10308 10315 10323 10333 10343 10352 10359 10367 10373 10379 10385 10391 10396 10402 10407 10413 10419 10426 10433 10440 10445 10451 10457 10461 10464 10466 10471 10476 10481 10485 10489 10495 10499 10501 10503 10507 10512 10517 10521 10523 10526 10532 10542 10548 10552 10555 10552 10549 10551 10559 10562 10563 10567 10569 10569 10576 10585 10591 10595 10600 10604 10605 10606 10607 10609 10610 10611 10612 10612 10612 10614 10615 10616 10617 10619
10230 10232 10235 10237 10241 10245 10251 10258 10265 10273 10281 10289 10297 10304 10312 10322 10332 10341 10349 10356 10363 10370 10376 10381 10387 10392 10398 10405 10412 10418 10423 10429 10435 10440 10446 10451 10454 10457 10459 10463 10470 10475 10478 10481 10485 10489 10493 10496 10501 10506 10510 10512 10516 10525 10535 10542 10543 10544 10546 10548 10548 10550 10554 10556 10557 10561 10563 10564 10570 10580 10588 10593 10595 10597 10599 10600 10601 10603 10604 10605 10606 10606 10608 10608 10608 10609 10611 10613
10232 10233 10236 10238 10242 10246 10251 10257 10264 10271 10279 10288 10295 10303 10312 10321 10330 10337 10345 10352 10359 10366 10372 10376 10381 10388 10395 10402 10409 10414 10420 10426 10431 10436 10441 10445 10448 10451 10452 10457 10464 10467 10469 10473 10477 10483 10488 10491 10495 10500 10503 10507 10516 10526 10532 10533 10533 10535 10538 10541 10542 10543 10546 10548 10552 10557 10560 10560 10566 10575 10583 10588 10589 10592 10594 10595 10597 10598 10599 10600 10600 10601 10602 10602 10602 10603 10605 10608
10234 10236 10239 10241 10245 10249 10254 10259 10265 10273 10281 10288 10296 10304 10312 10320 10328 10335 10342 10350 10357 10363 10368 10372 10379 10386 10393 10399 10405 10410 10415 10421 10427 10432 10436 10439 10441 10444 10446 10451 10456 10458 10462 10468 10473 10478 10482 10484 10487 10491 10497 10504 10512 10519 10521 10521 10522 10525 10528 10531 10534 10537 10540 10544 10549 10554 10555 10555 10559 10568 10576 10582 10585 10587 10589 10590 10591 10592 10593 10594 10594 10595 10595 10596 10597 10598 10600 10604
10237 10239 10242 10245 10248 10252 10258 10264 10270 10276 10283 10290 10297 10305 10313 10320 10327 10335 10342 10350 10356 10361 10366 10372 10379 10385 10391 10397 10402 10407 10412 10418 10421 10425 10428 10430 10433 10436 10440 10444 10448 10451 10456 10462 10466 10470 10473 10477 10480 10484 10492 10499 10504 10508 10510 10509 10511 10516 10522 10527 10531 10534 10537 10541 10544 10546 10547 10548 10553 10561 10569 10576 10579 10581 10582 10583 10584 10585 10585 10586 10587 10588 10589 10590 10592 10593 10596 10600
10241 10243 10246 10249 10252 10255 10260 10266 10273 10279 10286 10293 10300 10307 10314 10321 10328 10336 10343 10350 10355 10361 10367 10373 10379 10383 10388 10393 10398 10403 10408 10411 10414 10418 10421 10423 10426 10429 10434 10437 10440 10444 10451 10456 10460 10465 10469 10472 10475 10478 10484 10490 10494 10498 10500 10500 10504 10512 10518 10524 10527 10530 10532 10535 10537 10538 10540 10545 10551 10557 10563 10570 10574 10576 10577 10577 10578 10579 10579 10580 10581 10582 10583 10585 10586 10588 10592 10595
10246 10249 10251 10255 10258 10261 10264 10270 10276 10283 10289 10296 10303 10309 10317 10324 10331 10338 10344 10350 10356 10362 10367 10373 10377 10382 10386 10391 10394 10398 10402 10405 10409 10413 10415 10416 10418 10423 10427 10430 10433 10438 10444 10448 10451 10455 10459 10463 10467 10471 10476 10483 10490 10494 10497 10498 10503 10509 10515 10520 10522 10524 10526 10528 10530 10533 10537 10542 10548 10553 10558 10565 10569 10571 10572 10573 10572 10573 10573 10574 10575 10577 10578 10580 10582 10585 10588 10590
10252 10255 10258 10262 10265 10269 10272 10277 10283 10289 10296 10302 10309 10316 10322 10328 10333 10339 10345 10351 10356 10361 10366 10371 10375 10380 10384 10387 10390 10394 10397 10400 10403 10406 10408 10409 10412 10418 10422 10424 10427 10432 10436 10439 10442 10446 10450 10454 10458 10463 10469 10475 10481 10486 10489 10492 10497 10504 10510 10514 10516 10518 10519 10522 10525 10529 10534 10538 10543 10549 10555 10559 10562 10564 10566 10566 10565 10565 10566 10567 10568 10570 10573 10576 10578 10581 10583 10585
10257 10259 10263 10268 10273 10277 10282 10286 10291 10297 10302 10308 10314 10321 10327 10332 10337 10342 10346 10351 10355 10360 10364 10369 10373 10377 10380 10382 10386 10389 10392 10395 10397 10399 10401 10404 10407 10412 10415 10418 10421 10425 10427 10431 10434 10439 10444 10448 10452 10457 10462 10466 10471 10476 10480 10484 10490 10497 10503 10506 10509 10511 10513 10516 10521 10525 10529 10533 10538 10545 10550 10552 10555 10557 10558 10557 10558 10558 10558 10559 10561 10564 10568 10572 10574 10576 10577 10578
10263 10265 10269 10274 10278 10283 10288 10293 10298 10303 10308 10312 10317 10322 10327 10333 10337 10341 10345 10349 10354 10358 10363 10367 10371 10374 10377 10380 10384 10386 10388 10390 10393 10395 10397 10399 10403 10406 10408 10411 10414 10417 10421 10425 10430 10435 10441 10444 10446 10451 10456 10460 10465 10471 10476 10480 10486 10491 10495 10498 10502 10505 10508 10512 10517 10521 10525 10530 10534 10540 10544 10546 10548 10550 10550 10550 10551 10551 10551 10553 10555 10559 10564 10567 10569 10570 10570 10570
10268 10271 10274 10279 10283 10287 10292 10297 10302 10307 10311 10315 10319 10323 10327 10331 10334 10338 10342 10347 10351 10356 10361 10366 10369 10372 10375 10379 10381 10382 10384 10386 10388 10391 10393 10395 10398 10400 10403 10406 10408 10412 10416 10422 10427 10431 10435 10437 10439 10445 10450 10455 10460 10466 10471 10477 10482 10487 10490 10493 10497 10500 10503 10508 10513 10517 10520 10525 10529 10533 10536 10539 10541 10543 10544 10544 10544 10544 10545 10548 10551 10555 10559 10562 10563 10563 10563 10565
10272 10275 10277 10281 10285 10289 10293 10298 10303 10307 10312 10316 10320 10323 10326 10329 10332 10337 10342 10346 10351 10355 10359 10363 10367 10370 10372 10374 10376 10378 10380 10381 10383 10385 10387 10390 10393 10396 10399 10402 10405 10408 10413 10418 10423 10426 10429 10432 10436 10440 10445 10450 10455 10461 10466 10472 10477 10481 10485 10490 10494 10497 10500 10504 10509 10512 10515 10520 10524 10527 10529 10532 10534 10535 10536 10537 10537 10538 10540 10543 10546 10549 10553 10555 10556 10556 10557 10560
10279 10281 10283 10285 10287 10290 10293 10297 10301 10305 10309 10313 10318 10321 10325 10328 10332 10337 10341 10345 10350 10354 10358 10361 10364 10366 10368 10369 10371 10373 10375 10377 10378 10380 10382 10385 10388 10391 10394 10397 10400 10404 10409 10414 10418 10421 10424 10429 10433 10436 10441 10447 10453 10457 10462 10467 10472 10476 10481 10486 10490 10492 10495 10500 10504 10507 10510 10513 10516 10519 10522 10524 10526 10527 10529 10531 10531 10533 10535 10538 10541 10544 10547 10548 10549 10550 10552 10555
10284 10285 10287 10290 10292 10294 10297 10300 10303 10306 10309 10312 10315 10319 10323 10326 10331 10336 10340 10344 10348 10353 10357 10360 10362 10363 10364 10366 10368 10369 10371 10373 10375 10377 10379 10382 10385 10387 10389 10392 10397 10402 10407 10412 10415 10418 10422 10426 10429 10433 10439 10444 10448 10453 10458 10463 10467 10473 10478 10483 10486 10488 10491 10494 10498 10501 10504 10506 10509 10512 10515 10517 10518 10520 10522 10524 10526 10528 10531 10533 10536 10539 10540 10541 10543 10546 10548 10551